{"data":{"norad_id":54857,"intl_designator":"2022-177AP","name":"STARLINK-5078","alt_names":[],"object_type":"PAYLOAD","status":"ACTIVE","operator":null,"country":"US","launch_date":"2022-12-28","launch_site_code":"AFETR","launch_vehicle":null,"mission":null,"orbit_class":"UNKNOWN","rcs_meters":null,"size_class":null,"mass_kg":null,"dimensions":null,"purposes":["comms"],"wikipedia_slug":null,"has_3d_model":false,"image_url":null,"decayed_at":null,"tle_current":{"epoch":"2026-05-25T03:21:48.882240Z","epoch_age_seconds":77115,"freshness":"FRESH","line1":"1 54857U 22177AP  26145.14014910  .00002561  00000+0  10256-3 0  9996","line2":"2 54857  43.0054  49.7517 0001466 268.0008  92.0676 15.27578662188782","mean_motion":15.27578662,"eccentricity":0.0001466,"inclination_deg":43.0054,"raan_deg":49.7517,"arg_perigee_deg":268.0008,"mean_anomaly_deg":92.0676,"bstar":0.00010256,"rev_number":18878,"period_min":94.266831281517,"perigee_km":482.04725202689,"apogee_km":484.05895296495,"semimajor_km":6861.1901024959,"source":"CELESTRAK","updated_at":"2026-05-25T13:38:17.726859Z"}}}